Weather History for FAMM - October, 2011

Change the Weather History Date:

Thursday, October 13, 2011

  Actual Average Record
Temperature  
Mean Temperature 74 °F -  
Max Temperature 87 °F - - ()
Min Temperature 60 °F - - ()
Cooling Degree Days 8    
Growing Degree Days 24 (Base 50)    
Moisture  
Dew Point 32 °F    
Average Humidity 20    
Maximum Humidity 37    
Minimum Humidity 4    
Precipitation  
Precipitation 0.00 in - - ()
Sea Level Pressure  
Sea Level Pressure 30.04 in    
Wind  
Wind Speed 11 mph ()    
Max Wind Speed 20 mph    
Max Gust Speed -    
Visibility 11.3 miles    
Events      
T = Trace of Precipitation, MM = Missing Value Source: Averaged Metar Reports

Daily Weather History Graph

Daily Weather History Graph

Search for Another Location

Airport or City:

Trip Planner

Search our weather history database for the weather conditions in past years. The results will help you decide how hot, cold, wet, or windy it might be!

Date:

Astronomy

Oct. 13, 2011 Rise Set
Actual Time 5:45 AM SAST 6:23 PM SAST
Civil Twilight 5:22 AM SAST 6:46 PM SAST
Nautical Twilight 4:54 AM SAST 7:13 PM SAST
Astronomical Twilight 4:27 AM SAST 7:41 PM SAST
Moon 7:42 PM SAST (10/13) 6:12 AM SAST (10/13)
Length of Visible Light 13h 24m
Length of Day
12h 37m
Full, 98% of the Moon is Illuminated
Oct 13
Full
Oct 20
Last Quarter
Oct 26
New
Nov 2
First Quarter
Nov 10
Full

Hourly Weather History & Observations

Time (SAST) Temp. Dew Point Humidity Pressure Visibility Wind Dir Wind Speed Gust Speed Precip Events Conditions
12:00 AM - - N/A% 0.00 in - North - - N/A   Unknown
1:00 AM - - N/A% 0.00 in - North - - N/A   Unknown
2:00 AM - - %  in - Calm Calm - -  
2:00 AM - - N/A% 0.00 in - North - - N/A   Unknown
3:00 AM - - N/A% 0.00 in - North - - N/A   Unknown
4:00 AM - - N/A% 0.00 in - North - - N/A   Unknown
5:00 AM 64 °F 31 °F 18%  in 19 mi ENE 13.8 mph - -   Scattered Clouds
5:00 AM 62.6 °F 32.0 °F 32% 30.04 in - ENE 13.8 mph - N/A   Clear
6:00 AM 62.6 °F 33.8 °F 34% 30.04 in - NE 13.8 mph - N/A   Clear
7:00 AM 64.4 °F 37.4 °F 37% 30.06 in - NNE 15.0 mph - N/A   Clear
7:28 AM 68.0 °F 37.4 °F 33% 30.09 in - NNE 16.1 mph - N/A   Clear
8:00 AM 71 °F 39 °F 20%  in 19 mi NNE 19.6 mph - -  
8:00 AM 69.8 °F 37.4 °F 31% 30.09 in - NNE 18.4 mph - N/A   Clear
9:00 AM 73.4 °F 37.4 °F 27% 30.09 in - NNE 17.3 mph - N/A   Clear
10:00 AM 75.2 °F 37.4 °F 25% 30.09 in - North 12.7 mph - N/A   Clear
11:00 AM 80 °F 38 °F 13%  in 19 mi North 10.4 mph - -  
11:00 AM 78.8 °F 37.4 °F 23% 30.09 in - North 9.2 mph - N/A   Clear
12:00 PM 82.4 °F 35.6 °F 19% 30.06 in - North 8.1 mph - N/A   Clear
1:00 PM 84.2 °F 32.0 °F 15% 30.04 in - NNW 4.6 mph - N/A   Clear
2:00 PM 85 °F 26 °F 5%  in 25 mi NNE 6.9 mph - -   Scattered Clouds
2:00 PM 84.2 °F 26.6 °F 12% 30.01 in 6.2 mi NNE 6.9 mph - N/A   Partly Cloudy
3:00 PM 86.0 °F 26.6 °F 12% 30.01 in 6.2 mi North 3.5 mph - N/A   Partly Cloudy
4:00 PM 86.0 °F 24.8 °F 11% 29.98 in 6.2 mi NE 9.2 mph - N/A   Partly Cloudy
5:00 PM 85 °F 23 °F 4%  in 25 mi NNE 9.2 mph - -   Scattered Clouds
5:00 PM 84.2 °F 24.8 °F 11% 29.98 in 6.2 mi NNE 9.2 mph - N/A   Partly Cloudy
6:00 PM 82.4 °F 24.8 °F 12% 30.01 in 6.2 mi NNE 8.1 mph - N/A   Partly Cloudy
7:00 PM 75.2 °F 30.2 °F 19% 30.01 in 6.2 mi NE 8.1 mph - N/A   Partly Cloudy
8:00 PM 73 °F 30 °F 11%  in 19 mi NNE 9.2 mph - -   Scattered Clouds
8:00 PM 71.6 °F 30.2 °F 22% 30.04 in - NNE 9.2 mph - N/A   Clear
9:00 PM 69.8 °F 32.0 °F 25% 30.04 in - NNE 8.1 mph - N/A   Unknown
10:00 PM 69.8 °F 32.0 °F 25% 30.06 in - NNE 6.9 mph - N/A   Unknown
11:00 PM 67 °F 33 °F 18%  in - NNE 8.1 mph - -  
11:00 PM 66.2 °F 32.0 °F 28% 30.06 in - NNE 8.1 mph - N/A   Unknown